Tracking 31027 objects as of 19-Jul-2025
HD Live streaming from Space Station
objects crossing your sky now

DELTA 1 DEB

Track DELTA 1 DEB now!
10-day predictions


NORAD ID: 21326
Int'l Code: 1975-052AU
Perigee: 1,086.7 km
Apogee: 1,133.2 km
Inclination: 99.9 °
Period: 107.3 minutes
Semi major axis: 7480 km
RCS: 0.0568 m2 (small)
Launch date: June 12, 1975
Source: United States (US)
Launch site: AIR FORCE WESTERN TEST RANGE (AFWTR)

Note: This is SATELLITE DEBRIS
Your satellite tracking list
GEOTAIL
Track 1 satellite(s)




NASA's NSSDC Master Catalog

Two Line Element Set (TLE):
1 21326U 75052AU  25199.49390830  .00000091  00000-0  23955-3 0  9992
2 21326  99.8627  91.4432 0031119 144.1851  35.0396 13.41740678671224
Source of the keplerian elements: AFSPC